Presure
195 181 189 180 181 201 203 187 193 173 185 204 208 223 221 229 272 280 258 400 396 386 389 419 465 455 443 422 467 405 386 379 287 289 216 174 219 155 195 148 160 184 169
174 175 195 184 186 183 198 191 180 203 200 212 220 228 228 234 268 254 375 366 372 362 373 399 417 435 402 415 399 431 405 347 293 291 256 190 217 248 258 174 192 157 156
200 196 182 177 220 201 180 201 203 207 214 233 205 227 275 260 303 348 361 353 359 345 339 372 395 406 401 425 369 385 417 355 278 234 260 198 190 188 166 258 169 165 169
190 210 218 193 194 184 193 203 209 215 223 219 272 261 250 242 322 334 338 352 344 335 334 349 357 383 379 371 394 371 308 334 269 263 250 246 225 245 187 149 169 167 171
205 179 198 213 202 200 207 210 227 229 252 257 242 241 239 315 314 329 324 323 342 335 339 324 336 354 361 371 380 407 311 321 311 256 262 241 229 234 226 206 190 249 184
171 198 192 201 197 209 206 218 235 275 246 234 262 273 315 308 308 320 320 311 330 319 317 334 331 330 342 362 363 389 383 303 341 239 261 235 228 230 234 214 185 226 226
190 193 201 200 215 225 232 248 252 238 229 262 321 313 307 296 301 308 315 307 319 326 332 325 317 324 324 344 354 363 375 286 342 282 250 241 234 228 231 232 210 236 220
204 214 222 216 230 241 278 241 217 326 320 318 316 309 301 296 296 306 313 312 315 315 309 319 317 319 322 330 348 342 329 281 331 314 266 251 238 254 247 251 240 229 241
215 213 233 236 287 259 232 318 327 322 313 309 307 303 295 296 295 303 312 309 305 315 316 314 306 314 325 329 330 323 317 334 266 243 259 244 245 240 247 239 276 242 240
228 242 282 245 235 336 329 330 323 319 308 305 304 303 302 300 299 308 315 304 305 310 306 318 310 315 323 336 339 332 319 314 288 266 253 237 242 245 248 258 242 246 239
286 241 279 338 332 326 326 323 320 314 312 312 313 313 310 314 313 316 316 309 302 302 311 318 327 324 325 339 347 319 328 315 326 303 264 250 253 239 243 253 240 227 212
314 349 347 335 332 333 324 324 330 329 339 337 332 332 331 332 329 323 318 311 305 303 302 304 317 323 336 336 344 332 318 294 312 292 262 259 253 248 253 248 240 234 226
338 342 343 335 329 334 342 362 409 399 385 385 371 362 348 342 335 327 321 313 309 302 300 302 303 312 319 325 335 360 344 341 330 321 244 258 258 241 256 248 235 222 230
344 335 336 360 358 390 391 394 393 388 388 375 374 383 363 351 341 330 321 316 312 306 303 300 293 306 317 324 316 334 366 334 329 286 311 265 275 261 248 245 244 239 237
345 371 359 379 390 383 378 371 370 374 387 373 365 400 378 358 351 339 326 318 309 307 304 302 302 296 308 326 298 322 336 364 340 307 331 281 286 288 298 257 260 235 235
366 406 403 390 378 372 371 368 375 373 367 393 410 406 390 371 360 346 335 323 314 308 304 303 301 298 301 322 316 311 329 357 381 340 294 314 275 286 284 288 250 244 245
410 435 483 493 455 427 392 374 384 390 391 377 369 387 364 355 371 356 346 335 323 315 309 305 304 303 299 313 309 299 322 345 347 356 380 335 297 303 254 268 254 247 247
391 472 442 457 424 444 424 408 420 382 368 363 380 387 375 410 383 370 356 339 330 322 312 309 307 306 299 300 293 304 330 339 326 334 342 343 355 318 287 271 271 246 286
375 450 431 414 405 407 397 439 408 415 401 391 386 386 387 352 371 359 367 354 344 335 324 314 310 307 302 299 284 302 334 318 316 312 323 348 371 293 305 277 281 273 276
437 422 410 406 397 394 386 382 388 386 385 398 393 378 394 364 341 397 385 370 360 346 333 324 316 307 309 302 283 303 337 306 305 310 319 315 355 469 413 298 286 277 284
440 411 397 393 394 389 384 381 382 378 398 384 378 378 380 385 375 388 364 417 382 362 350 337 327 318 307 297 292 309 316 303 292 303 312 319 326 370 474 354 345 301 286
404 393 388 385 382 380 381 385 388 386 383 384 382 395 390 393 385 388 368 365 392 385 371 355 342 331 316 296 294 302 307 297 292 291 297 298 307 324 339 338 350 338 324
441 444 445 444 442 438 423 394 380 382 388 394 392 391 452 414 412 406 382 386 393 397 377 375 361 348 329 299 293 302 307 293 293 288 285 290 294 298 310 322 327 337 344
451 455 457 459 462 465 468 471 473 455 415 397 393 403 409 397 447 485 411 406 377 390 386 375 376 365 348 295 299 311 310 292 292 281 282 279 281 281 282 288 295 301 307
464 470 473 476 484 489 484 484 490 489 489 483 450 423 411 413 410 450 485 501 419 387 398 381 378 378 369 300 305 311 315 294 289 282 278 276 268 275 273 277 276 279 283
475 482 488 490 490 502 502 494 498 499 510 517 489 477 468 457 425 435 419 480 481 526 448 394 393 389 378 311 312 313 318 297 290 279 276 269 272 267 268 265 280 278 284
Wind_Speed
92 95 98 95 102 104 101 108 108 92 106 117 122 124 126 133 130 125 117 59 58 64 67 51 41 27 40 54 56 89 96 105 100 106 102 111 103 79 90 57 82 98 80
98 94 98 103 106 104 109 108 104 115 115 125 133 135 131 133 126 117 62 62 55 60 55 44 34 30 39 51 66 63 91 97 94 82 94 115 99 113 110 100 105 84 83
98 101 100 99 99 105 98 113 117 123 130 134 107 131 122 122 100 70 59 58 51 53 55 42 34 23 26 39 61 62 65 95 86 85 80 97 108 105 93 94 106 99 103
100 101 101 94 111 107 113 117 125 132 135 131 120 118 119 118 75 66 61 51 51 48 43 41 33 25 26 29 48 69 76 97 98 102 98 97 94 89 108 81 69 103 109
103 87 100 105 112 115 121 125 134 133 123 117 120 119 117 77 71 61 60 57 47 45 36 36 30 28 25 32 29 42 71 89 102 98 89 94 99 98 115 116 101 98 113
84 107 111 112 113 122 122 132 137 117 117 120 113 101 78 72 67 60 57 56 48 47 43 31 25 22 23 27 23 33 55 78 96 88 111 102 97 104 109 99 112 100 104
109 113 116 115 127 135 140 134 120 119 118 113 84 77 73 70 65 60 55 53 48 43 40 36 28 23 21 22 24 27 34 72 80 108 108 111 107 101 110 114 94 106 100
113 119 124 123 139 139 126 121 113 100 93 85 78 74 70 67 63 59 54 51 47 44 40 35 32 25 24 24 26 41 53 69 76 105 115 118 102 101 104 108 111 116 114
120 123 140 140 130 125 122 104 97 91 86 80 75 71 69 66 63 59 54 52 49 47 42 37 35 33 29 29 31 53 60 51 74 75 98 100 105 105 104 103 98 100 99
135 139 131 129 127 108 102 95 90 85 81 79 76 71 68 65 63 59 54 53 52 48 45 40 37 34 32 33 35 35 62 70 82 86 103 96 105 108 101 85 91 87 82
135 130 121 100 99 102 98 92 87 83 80 78 75 72 69 65 63 58 55 52 52 51 48 44 39 34 32 29 37 48 49 71 72 82 115 107 113 102 100 94 98 99 91
111 100 95 93 92 93 95 91 82 80 80 77 75 72 69 65 62 58 55 54 52 51 49 45 41 35 29 26 29 50 61 76 74 84 105 107 111 104 99 101 106 111 103
95 97 96 91 91 93 90 86 67 60 62 61 63 64 66 64 62 59 57 55 53 51 50 46 43 40 35 32 29 27 52 61 72 82 84 96 108 91 109 112 106 95 110
97 95 95 89 90 82 79 76 70 64 59 59 60 60 63 63 61 60 59 57 55 53 52 49 44 42 39 35 35 32 31 65 73 89 87 100 103 114 106 116 114 116 112
93 91 89 80 74 78 79 79 78 73 63 57 57 57 61 62 63 62 61 60 58 56 54 51 48 44 41 39 38 37 35 36 69 91 87 99 115 117 115 125 123 104 105
90 76 74 74 70 74 76 79 79 76 73 69 50 52 57 61 63 63 63 62 61 58 57 55 50 45 42 41 40 39 39 39 38 73 95 108 93 108 100 125 114 108 110
73 66 51 48 52 65 75 77 78 76 68 68 57 50 55 58 61 63 64 64 64 62 60 58 54 48 43 40 42 41 41 39 40 41 42 97 107 115 81 87 92 103 107
71 45 46 45 48 60 74 72 78 70 70 67 72 67 48 52 59 61 63 64 65 63 61 59 55 50 45 42 45 43 41 37 38 38 43 62 80 115 106 90 91 88 102
67 44 43 45 46 48 50 58 58 64 69 73 73 66 64 54 50 57 61 64 65 66 65 62 57 54 48 44 46 43 41 40 39 39 40 44 59 94 108 93 101 97 92
52 48 44 42 44 46 49 51 54 55 56 73 72 56 60 49 59 45 57 62 64 65 66 64 60 55 50 45 48 44 42 43 39 36 37 43 37 38 74 111 101 97 105
47 45 44 44 43 44 47 49 51 52 57 55 54 54 57 59 53 54 62 50 62 64 65 65 63 57 51 48 50 45 46 45 41 36 32 31 32 33 43 77 88 112 106
53 51 49 48 47 47 47 47 49 52 54 55 54 62 60 63 60 62 60 58 57 61 62 64 63 60 53 52 52 45 51 49 44 41 37 35 33 32 40 56 62 80 98
55 53 51 49 49 50 51 52 52 52 54 55 56 57 61 74 75 73 58 60 59 61 60 59 60 60 56 55 55 48 55 54 49 46 41 38 36 36 38 41 45 48 54
55 53 51 48 46 45 44 45 48 51 57 56 54 56 57 55 57 71 70 66 64 62 62 59 58 58 57 60 58 53 60 56 53 49 45 41 38 37 38 39 41 44 48
53 51 48 44 40 38 38 40 41 43 45 47 54 57 55 54 53 56 59 67 67 66 67 62 61 59 57 63 61 55 63 60 57 52 48 45 42 42 41 41 42 43 46
55 51 47 42 38 34 33 33 35 36 36 39 44 48 51 52 52 51 51 54 57 63 68 62 65 63 58 66 64 58 65 65 61 53 50 46 45 44 43 44 47 51 54
Wind_Direction
293 291 291 295 296 296 296 298 294 301 298 299 299 299 299 301 300 300 302 296 295 293 295 305 300 274 263 248 231 231 226 230 230 235 242 234 245 258 234 272 260 241 254
293 299 292 293 296 300 293 294 298 299 300 302 302 300 301 301 301 303 299 300 297 299 309 318 306 273 255 231 233 238 226 217 224 222 232 230 228 240 243 246 234 263 272
293 291 295 301 294 293 302 299 299 301 302 301 301 302 301 301 303 300 300 299 296 299 304 321 319 289 269 239 232 231 231 214 205 230 212 234 228 240 248 235 249 250 252
292 294 294 294 297 301 301 302 303 302 302 302 302 301 301 302 302 301 300 296 297 299 308 318 319 310 273 259 238 229 215 212 212 211 221 227 226 216 226 243 253 252 250
298 301 299 299 297 299 302 302 301 300 302 300 300 300 302 301 301 301 299 300 296 301 310 307 312 316 298 263 262 243 214 212 211 212 211 214 221 221 228 232 233 236 238
304 296 298 300 301 301 300 301 302 302 299 298 300 302 301 300 301 300 298 298 294 297 301 300 302 300 300 284 257 245 227 210 215 218 201 216 220 220 225 229 229 234 235
299 297 297 299 302 301 300 301 299 298 297 298 299 298 298 297 298 297 294 294 291 286 295 299 292 282 275 278 236 205 194 212 214 204 208 213 219 222 227 230 227 239 236
295 299 301 301 301 299 301 297 298 298 299 297 296 296 295 294 294 294 290 289 288 286 286 291 291 284 263 255 235 197 207 212 214 206 204 211 220 222 223 225 230 235 239
301 301 302 300 302 299 295 296 296 296 295 295 294 293 291 291 290 289 285 284 283 281 280 279 281 278 271 244 226 205 208 204 211 215 203 210 216 219 222 228 231 221 229
304 302 302 299 296 295 294 293 293 293 293 292 290 288 287 285 285 284 279 278 278 277 276 274 272 269 268 262 232 209 210 210 209 213 210 216 218 221 222 215 214 214 207
303 298 297 294 293 294 293 293 293 292 290 287 286 285 283 281 279 277 273 270 272 274 275 274 276 270 268 264 245 212 214 212 213 215 208 214 219 221 222 210 210 214 226
297 296 297 296 295 292 292 292 292 289 285 283 281 280 278 275 273 271 267 265 265 267 269 270 272 271 268 261 243 228 218 213 211 212 210 215 217 219 215 212 213 216 222
302 301 299 298 295 293 290 287 284 281 278 272 271 269 269 267 266 264 263 260 259 261 263 265 266 267 263 261 252 261 231 220 206 211 224 219 220 223 210 210 218 227 222
303 301 299 297 293 288 287 285 284 281 279 273 270 262 261 261 259 258 258 257 255 254 255 257 258 261 262 262 256 255 259 223 213 214 209 221 218 218 222 221 220 219 225
301 299 297 293 286 285 285 286 287 286 281 272 266 258 256 256 254 252 252 252 252 251 252 252 253 253 255 261 251 254 251 252 223 217 213 218 219 223 221 221 218 226 226
303 297 292 288 283 279 277 278 278 278 280 280 273 257 251 251 250 249 248 247 247 246 247 249 249 248 250 255 253 251 254 258 252 225 220 213 224 223 223 218 222 225 225
303 298 284 271 255 245 256 268 268 269 269 274 276 259 258 255 246 247 247 246 245 244 243 244 246 245 244 248 246 247 254 254 241 234 233 224 224 222 224 224 228 227 229
308 298 289 278 272 257 255 263 264 259 269 273 272 270 263 252 245 244 243 244 245 245 243 243 244 243 240 241 244 245 247 241 234 233 230 225 225 221 225 225 224 226 226
311 304 294 287 280 275 271 263 262 255 254 258 263 265 266 248 248 246 243 243 244 244 242 240 238 238 236 235 240 242 241 228 225 226 228 231 227 225 222 228 227 231 229
311 305 298 290 284 279 274 272 267 265 260 253 259 266 253 249 247 249 245 240 240 240 242 241 239 235 234 229 237 237 232 222 221 224 222 220 225 232 220 226 227 228 231
313 306 300 295 289 281 277 273 270 269 263 263 261 260 260 261 257 250 243 250 239 238 239 240 240 234 228 225 231 230 218 218 222 217 213 211 216 222 218 216 218 224 227
314 308 301 294 289 283 279 274 270 267 265 263 261 259 259 258 256 255 242 243 243 240 236 236 237 236 227 220 227 224 213 214 217 213 211 208 204 203 208 209 213 221 225
317 311 304 298 291 284 278 272 270 266 263 260 259 257 256 255 255 253 240 241 242 238 237 235 233 233 227 215 222 219 211 214 211 213 211 211 205 202 198 201 206 213 217
322 316 311 306 299 292 285 278 273 267 260 259 258 255 253 252 251 247 248 245 235 233 233 234 232 229 226 214 217 215 208 213 210 213 210 211 211 213 211 210 208 206 207
330 325 321 315 307 297 289 283 278 271 265 259 256 254 253 251 248 250 248 243 235 232 228 227 229 227 224 212 214 211 206 209 211 210 211 212 213 217 216 218 221 223 221
339 334 329 324 318 307 297 290 282 276 269 261 257 256 255 253 248 246 244 245 241 239 232 227 223 225 221 206 211 207 204 207 210 210 212 215 217 219 222 224 229 226 228